STARLINK-11549, 62832

Orbit data source: Space-Track

STARLINK-11549, 62832 is a payload satellite owned by SpaceX/Seattle (US) in LEO that was launched on Mon, 27 Jan 2025 UTC via an FALCON 9 launch vehicle from the Air Force Eastern Test Range (AFETR). Payload-class satellites include a variety of spacecraft equipped with specific instruments for various scientific and technological missions. These include communications satellites like Starlink; space stations such as the ISS; scientific satellites like the Hubble; Earth observation satellites from companies like Planet Labs, Umbra, and HawkEye 360; GPS; miniature CubeSats for education and research; and military/defense satellites.

Loading next visibility...
Identifier
62832, 2025-019D
Orbit
LEO
Last TLE update
7 hours ago
Origin
Manufacturer
SpaceX/Seattle
Mission
Operational Commercial Communications
Bus & Motor
STARLINK V2M, Unknown motor
Mass
730 kg wet, ~700 kg dry
Launch date (UTC)
2025-01-27 (5 months ago)
Launch vehicle
FALCON 9
Launch site
Air Force Eastern Test Range (AFETR)
Object type
Payload
Rocket body
Debris
Shape & HBR
Box + 2 Pan, 29 m
Radar Cross Section
36.964 m², Large (>1 m²)

Expand to show TLE details & history

TLE from 7 hours ago
0 STARLINK-11549
1 62832U 25019D   25182.82542127  .00159373  00000-0  12205-2 0  9997
2 62832  43.0033  18.3490 0002400 268.3617  91.6976 15.70865330 25362
Epoch: 2025-07-01T19:48Z
TLE epoch observation values (Epoch: 2025-07-01T19:48:36.397Z)
Latitude
-0.00002°
Longitude
161.08201°
Altitude
356.242 km
Speed
7.697 km/s
True Right ascension
01h 13m 23s
True Declination
0° 00' 00"
Sunlit
Object was in daylight at epoch
Visualization orbit readout
Latitude
6.14122°
Longitude
-27.22141°
Altitude
355.612 km
Speed
7.698 km/s
Apparent Right ascension
09h 50m 28s
Apparent Declination
-47° 45' 39"
Sunlit
Object is in daylight
Visualization observer readout
Local Sidereal Time
14:19:24
Azimuth
220.151° SW
Elevation
-15.993°
Doppler factor
1
Orbital elements
Apogee altitude
360.02 km
Perigee altitude
356.787 km
Semi-major axis
6,736.541 km
Eccentricity
0.00024
Inclination
43.0033°
RAAN
18.349°
Arg. of periapsis
268.3617°
True anomaly
Unknown
Mean anomaly
91.6976°
Eccentric anomaly
Unknown
Mean motion
3.92543 °/min
Orbital period
91.71 mins
BSTAR
0.0012205
Loading maneuver chart data...
Loading SW <> Apogee altitude chart data...
Loading historical data...
Loading historical data...
Loading historical data...
Loading historical data...
Loading historical data...
Loading historical data...
Loading historical data...

STARLINK-11549 Visibility forecast

Observer location: undefined°, undefined°

Span
Click to sort rows by Start time (UTC) header in descending order
Start Az.
Max El. time (UTC)
Max El. Az.
Max El.
End time (UTC)
End Az.
4 mins2025-07-02 17:27:17.575Z257.359° W2025-07-02 17:28:17.575Z304.012° NW44.672°2025-07-02 17:31:17.575Z71.078° E
4 mins2025-07-02 19:03:17.575Z301.621° NW2025-07-02 19:04:17.575Z337.76° N33.114°2025-07-02 19:07:17.575Z72.771° E
4 mins2025-07-02 20:39:17.575Z291.762° WNW2025-07-02 20:41:17.575Z87.268° E41.579°2025-07-02 20:43:17.575Z104.066° ESE
|